Time,TemperatureF,DewpointF,PressureIn,WindDirection,WindDirectionDegrees,WindSpeedMPH,WindSpeedGustMPH,Humidity,HourlyPrecipIn,Conditions,Clouds,dailyrainin,SolarRadiationWatts/m^2,SoftwareType,DateUTC
2013-01-20 00:02:00,65.0,50.0,-100.00,NNE,18,4.0,11.0,59,0.00,,,0.00,0.000000,,2013-01-20 10:02:00,
2013-01-20 00:12:00,65.0,50.0,-100.00,NNE,18,4.0,11.0,59,0.00,,,0.00,0.000000,,2013-01-20 10:12:00,
2013-01-20 00:22:00,65.0,50.0,-100.00,NNE,18,4.0,11.0,59,0.00,,,0.00,0.000000,,2013-01-20 10:22:00,
2013-01-20 00:32:00,65.0,50.0,-100.00,NNE,18,4.0,11.0,59,0.00,,,0.00,0.000000,,2013-01-20 10:32:00,
2013-01-20 00:52:00,64.0,51.0,-100.00,NNE,22,4.0,11.0,62,0.00,,,0.00,0.000000,,2013-01-20 10:52:00,
2013-01-20 01:02:00,64.0,51.0,-100.00,NNE,22,4.0,11.0,62,0.00,,,0.00,0.000000,,2013-01-20 11:02:00,
2013-01-20 01:12:00,64.0,51.0,-100.00,NNE,22,4.0,11.0,62,0.00,,,0.00,0.000000,,2013-01-20 11:12:00,
2013-01-20 01:22:00,64.0,51.0,-100.00,NNE,22,4.0,11.0,62,0.00,,,0.00,0.000000,,2013-01-20 11:22:00,
2013-01-20 01:32:00,64.0,51.0,-100.00,NNE,22,4.0,11.0,62,0.00,,,0.00,0.000000,,2013-01-20 11:32:00,
2013-01-20 02:03:00,63.0,51.0,-100.00,NNE,22,3.0,6.0,66,0.00,,,0.00,0.000000,,2013-01-20 12:03:00,
2013-01-20 02:12:00,63.0,51.0,-100.00,NNE,22,3.0,6.0,66,0.00,,,0.00,0.000000,,2013-01-20 12:12:00,
2013-01-20 02:22:00,63.0,51.0,-100.00,NNE,22,3.0,6.0,66,0.00,,,0.00,0.000000,,2013-01-20 12:22:00,
2013-01-20 02:32:00,63.0,51.0,-100.00,NNE,22,3.0,6.0,66,0.00,,,0.00,0.000000,,2013-01-20 12:32:00,
2013-01-20 02:53:00,64.0,52.0,-100.00,North,11,5.0,8.0,64,0.00,,,0.00,0.000000,,2013-01-20 12:53:00,
2013-01-20 03:02:00,64.0,52.0,-100.00,North,11,5.0,8.0,64,0.00,,,0.00,0.000000,,2013-01-20 13:02:00,
2013-01-20 03:12:00,64.0,52.0,-100.00,North,11,5.0,8.0,64,0.00,,,0.00,0.000000,,2013-01-20 13:12:00,
2013-01-20 03:23:00,64.0,52.0,-100.00,North,11,5.0,8.0,64,0.00,,,0.00,0.000000,,2013-01-20 13:23:00,
2013-01-20 03:32:00,64.0,52.0,-100.00,North,11,5.0,8.0,64,0.00,,,0.00,0.000000,,2013-01-20 13:32:00,
2013-01-20 03:53:00,63.0,49.0,-100.00,NNE,15,3.0,8.0,60,0.00,,,0.00,0.000000,,2013-01-20 13:53:00,
2013-01-20 04:02:00,63.0,49.0,-100.00,NNE,15,3.0,8.0,60,0.00,,,0.00,0.000000,,2013-01-20 14:02:00,
2013-01-20 04:12:00,63.0,49.0,-100.00,NNE,15,3.0,8.0,60,0.00,,,0.00,0.000000,,2013-01-20 14:12:00,
2013-01-20 04:22:00,63.0,49.0,-100.00,NNE,15,3.0,8.0,60,0.00,,,0.00,0.000000,,2013-01-20 14:22:00,
2013-01-20 04:32:00,63.0,49.0,-100.00,NNE,15,3.0,8.0,60,0.00,,,0.00,0.000000,,2013-01-20 14:32:00,
2013-01-20 04:53:00,61.0,51.0,-100.00,NNE,32,3.0,6.0,70,0.00,,,0.00,0.000000,,2013-01-20 14:53:00,
2013-01-20 05:03:00,61.0,51.0,-100.00,NNE,32,3.0,6.0,70,0.00,,,0.00,0.000000,,2013-01-20 15:03:00,
2013-01-20 05:12:00,61.0,51.0,-100.00,NNE,32,3.0,6.0,70,0.00,,,0.00,0.000000,,2013-01-20 15:12:00,
2013-01-20 05:22:00,61.0,51.0,-100.00,NNE,32,3.0,6.0,70,0.00,,,0.00,0.000000,,2013-01-20 15:22:00,
2013-01-20 05:32:00,61.0,51.0,-100.00,NNE,32,3.0,6.0,70,0.00,,,0.00,0.000000,,2013-01-20 15:32:00,
2013-01-20 06:02:00,63.0,50.0,-100.00,North,1,5.0,7.0,63,0.00,,,0.00,0.000000,,2013-01-20 16:02:00,
2013-01-20 06:12:00,63.0,50.0,-100.00,North,1,5.0,7.0,63,0.00,,,0.00,0.000000,,2013-01-20 16:12:00,
2013-01-20 06:22:00,63.0,50.0,-100.00,North,1,5.0,7.0,63,0.00,,,0.00,0.000000,,2013-01-20 16:22:00,
2013-01-20 06:32:00,63.0,50.0,-100.00,North,1,5.0,7.0,63,0.00,,,0.00,0.000000,,2013-01-20 16:32:00,
2013-01-20 07:03:00,63.0,50.0,-100.00,North,5,6.0,9.0,63,0.00,,,0.00,0.000000,,2013-01-20 17:03:00,
2013-01-20 07:12:00,63.0,50.0,-100.00,North,5,6.0,9.0,63,0.00,,,0.00,0.000000,,2013-01-20 17:12:00,
2013-01-20 07:22:00,63.0,50.0,-100.00,North,5,6.0,9.0,63,0.00,,,0.00,0.000000,,2013-01-20 17:22:00,
2013-01-20 07:32:00,63.0,50.0,-100.00,North,5,6.0,9.0,63,0.00,,,0.00,0.000000,,2013-01-20 17:32:00,
2013-01-20 08:02:00,62.0,49.0,-100.00,NE,43,4.0,8.0,63,0.00,,,0.00,5.000000,,2013-01-20 18:02:00,
2013-01-20 08:12:00,62.0,49.0,-100.00,NE,43,4.0,8.0,63,0.00,,,0.00,5.000000,,2013-01-20 18:12:00,
2013-01-20 08:23:00,62.0,49.0,-100.00,NE,43,4.0,8.0,63,0.00,,,0.00,5.000000,,2013-01-20 18:23:00,
2013-01-20 08:33:00,62.0,49.0,-100.00,NE,43,4.0,8.0,63,0.00,,,0.00,5.000000,,2013-01-20 18:33:00,
2013-01-20 08:53:00,70.0,55.0,-100.00,NE,47,4.0,7.0,60,0.00,,,0.00,183.000000,,2013-01-20 18:53:00,
2013-01-20 09:02:00,70.0,55.0,-100.00,NE,47,4.0,7.0,60,0.00,,,0.00,183.000000,,2013-01-20 19:02:00,
2013-01-20 09:12:00,70.0,55.0,-100.00,NE,47,4.0,7.0,60,0.00,,,0.00,183.000000,,2013-01-20 19:12:00,
2013-01-20 09:22:00,70.0,55.0,-100.00,NE,47,4.0,7.0,60,0.00,,,0.00,183.000000,,2013-01-20 19:22:00,
2013-01-20 09:33:00,70.0,55.0,-100.00,NE,47,4.0,7.0,60,0.00,,,0.00,183.000000,,2013-01-20 19:33:00,
2013-01-20 09:53:00,73.0,56.0,-100.00,ENE,75,3.0,7.0,56,0.00,,,0.00,472.000000,,2013-01-20 19:53:00,
2013-01-20 10:02:00,73.0,56.0,-100.00,ENE,75,3.0,7.0,56,0.00,,,0.00,472.000000,,2013-01-20 20:02:00,
2013-01-20 10:12:00,73.0,56.0,-100.00,ENE,75,3.0,7.0,56,0.00,,,0.00,472.000000,,2013-01-20 20:12:00,
2013-01-20 10:22:00,73.0,56.0,-100.00,ENE,75,3.0,7.0,56,0.00,,,0.00,472.000000,,2013-01-20 20:22:00,
2013-01-20 10:32:00,73.0,56.0,-100.00,ENE,75,3.0,7.0,56,0.00,,,0.00,472.000000,,2013-01-20 20:32:00,
2013-01-20 10:53:00,76.0,54.0,-100.00,South,176,5.0,8.0,46,0.00,,,0.00,714.000000,,2013-01-20 20:53:00,
2013-01-20 11:03:00,76.0,54.0,-100.00,South,176,5.0,8.0,46,0.00,,,0.00,714.000000,,2013-01-20 21:03:00,
2013-01-20 11:13:00,76.0,54.0,-100.00,South,176,5.0,8.0,46,0.00,,,0.00,714.000000,,2013-01-20 21:13:00,
2013-01-20 11:22:00,76.0,54.0,-100.00,South,176,5.0,8.0,46,0.00,,,0.00,714.000000,,2013-01-20 21:22:00,
2013-01-20 11:33:00,76.0,54.0,-100.00,South,176,5.0,8.0,46,0.00,,,0.00,714.000000,,2013-01-20 21:33:00,
2013-01-20 12:03:00,76.0,55.0,-100.00,SSW,194,7.0,11.0,48,0.00,,,0.00,878.000000,,2013-01-20 22:03:00,
2013-01-20 12:12:00,76.0,55.0,-100.00,SSW,194,7.0,11.0,48,0.00,,,0.00,878.000000,,2013-01-20 22:12:00,
2013-01-20 12:22:00,76.0,55.0,-100.00,SSW,194,7.0,11.0,48,0.00,,,0.00,878.000000,,2013-01-20 22:22:00,
2013-01-20 12:32:00,76.0,55.0,-100.00,SSW,194,7.0,11.0,48,0.00,,,0.00,878.000000,,2013-01-20 22:32:00,
2013-01-20 12:53:00,79.0,58.0,-100.00,SW,225,8.0,11.0,49,0.00,,,0.00,968.000000,,2013-01-20 22:53:00,
2013-01-20 13:03:00,79.0,58.0,-100.00,SW,225,8.0,11.0,49,0.00,,,0.00,968.000000,,2013-01-20 23:03:00,
2013-01-20 13:12:00,79.0,58.0,-100.00,SW,225,8.0,11.0,49,0.00,,,0.00,968.000000,,2013-01-20 23:12:00,
2013-01-20 13:22:00,79.0,58.0,-100.00,SW,225,8.0,11.0,49,0.00,,,0.00,968.000000,,2013-01-20 23:22:00,
2013-01-20 13:33:00,79.0,58.0,-100.00,SW,225,8.0,11.0,49,0.00,,,0.00,968.000000,,2013-01-20 23:33:00,
2013-01-20 14:03:00,80.0,58.0,-100.00,SW,236,9.0,15.0,47,0.00,,,0.00,973.000000,,2013-01-21 00:03:00,
2013-01-20 14:13:00,80.0,58.0,-100.00,SW,236,9.0,15.0,47,0.00,,,0.00,973.000000,,2013-01-21 00:13:00,
2013-01-20 14:22:00,80.0,58.0,-100.00,SW,236,9.0,15.0,47,0.00,,,0.00,973.000000,,2013-01-21 00:22:00,
2013-01-20 14:32:00,80.0,58.0,-100.00,SW,236,9.0,15.0,47,0.00,,,0.00,973.000000,,2013-01-21 00:32:00,
2013-01-20 14:53:00,81.0,59.0,-100.00,WSW,242,8.0,15.0,47,0.00,,,0.00,894.000000,,2013-01-21 00:53:00,
2013-01-20 15:03:00,81.0,59.0,-100.00,WSW,242,8.0,15.0,47,0.00,,,0.00,894.000000,,2013-01-21 01:03:00,
2013-01-20 15:12:00,81.0,59.0,-100.00,WSW,242,8.0,15.0,47,0.00,,,0.00,894.000000,,2013-01-21 01:12:00,
2013-01-20 15:22:00,81.0,59.0,-100.00,WSW,242,8.0,15.0,47,0.00,,,0.00,894.000000,,2013-01-21 01:22:00,
2013-01-20 15:32:00,81.0,59.0,-100.00,WSW,242,8.0,15.0,47,0.00,,,0.00,894.000000,,2013-01-21 01:32:00,
2013-01-20 16:03:00,81.0,61.0,-100.00,WSW,255,8.0,13.0,50,0.00,,,0.00,743.000000,,2013-01-21 02:03:00,
2013-01-20 16:12:00,81.0,61.0,-100.00,WSW,255,8.0,13.0,50,0.00,,,0.00,743.000000,,2013-01-21 02:12:00,
2013-01-20 16:22:00,81.0,61.0,-100.00,WSW,255,8.0,13.0,50,0.00,,,0.00,743.000000,,2013-01-21 02:22:00,
2013-01-20 16:32:00,81.0,61.0,-100.00,WSW,255,8.0,13.0,50,0.00,,,0.00,743.000000,,2013-01-21 02:32:00,
2013-01-20 16:53:00,79.0,60.0,-100.00,West,268,8.0,14.0,53,0.00,,,0.00,525.000000,,2013-01-21 02:53:00,
2013-01-20 17:02:00,79.0,60.0,-100.00,West,268,8.0,14.0,53,0.00,,,0.00,525.000000,,2013-01-21 03:02:00,
2013-01-20 17:12:00,79.0,60.0,-100.00,West,268,8.0,14.0,53,0.00,,,0.00,525.000000,,2013-01-21 03:12:00,
2013-01-20 17:23:00,79.0,60.0,-100.00,West,268,8.0,14.0,53,0.00,,,0.00,525.000000,,2013-01-21 03:23:00,
2013-01-20 17:32:00,79.0,60.0,-100.00,West,268,8.0,14.0,53,0.00,,,0.00,525.000000,,2013-01-21 03:32:00,
2013-01-20 17:53:00,75.0,57.0,-100.00,West,276,7.0,13.0,54,0.00,,,0.00,271.000000,,2013-01-21 03:53:00,
2013-01-20 18:02:00,75.0,57.0,-100.00,West,276,7.0,13.0,54,0.00,,,0.00,271.000000,,2013-01-21 04:02:00,
2013-01-20 18:12:00,75.0,57.0,-100.00,West,276,7.0,13.0,54,0.00,,,0.00,271.000000,,2013-01-21 04:12:00,
2013-01-20 18:22:00,75.0,57.0,-100.00,West,276,7.0,13.0,54,0.00,,,0.00,271.000000,,2013-01-21 04:22:00,
2013-01-20 18:32:00,75.0,57.0,-100.00,West,276,7.0,13.0,54,0.00,,,0.00,271.000000,,2013-01-21 04:32:00,
2013-01-20 18:53:00,68.0,57.0,-100.00,WNW,283,3.0,12.0,68,0.00,,,0.00,44.000000,,2013-01-21 04:53:00,
2013-01-20 19:03:00,68.0,57.0,-100.00,WNW,283,3.0,12.0,68,0.00,,,0.00,44.000000,,2013-01-21 05:03:00,
2013-01-20 19:12:00,68.0,57.0,-100.00,WNW,283,3.0,12.0,68,0.00,,,0.00,44.000000,,2013-01-21 05:12:00,
2013-01-20 19:22:00,68.0,57.0,-100.00,WNW,283,3.0,12.0,68,0.00,,,0.00,44.000000,,2013-01-21 05:22:00,
2013-01-20 19:33:00,68.0,57.0,-100.00,WNW,283,3.0,12.0,68,0.00,,,0.00,44.000000,,2013-01-21 05:33:00,
2013-01-20 19:53:00,66.0,57.0,-100.00,NE,39,2.0,4.0,74,0.00,,,0.00,0.000000,,2013-01-21 05:53:00,
2013-01-20 20:02:00,66.0,57.0,-100.00,NE,39,2.0,4.0,74,0.00,,,0.00,0.000000,,2013-01-21 06:02:00,
2013-01-20 20:12:00,66.0,57.0,-100.00,NE,39,2.0,4.0,74,0.00,,,0.00,0.000000,,2013-01-21 06:12:00,
2013-01-20 20:23:00,66.0,57.0,-100.00,NE,39,2.0,4.0,74,0.00,,,0.00,0.000000,,2013-01-21 06:23:00,
2013-01-20 20:32:00,66.0,57.0,-100.00,NE,39,2.0,4.0,74,0.00,,,0.00,0.000000,,2013-01-21 06:32:00,
2013-01-20 20:53:00,65.0,58.0,-100.00,NNE,14,2.0,5.0,77,0.00,,,0.00,0.000000,,2013-01-21 06:53:00,
2013-01-20 21:03:00,65.0,58.0,-100.00,NNE,14,2.0,5.0,77,0.00,,,0.00,0.000000,,2013-01-21 07:03:00,
2013-01-20 21:12:00,65.0,58.0,-100.00,NNE,14,2.0,5.0,77,0.00,,,0.00,0.000000,,2013-01-21 07:12:00,
2013-01-20 21:22:00,65.0,58.0,-100.00,NNE,14,2.0,5.0,77,0.00,,,0.00,0.000000,,2013-01-21 07:22:00,
2013-01-20 21:32:00,65.0,58.0,-100.00,NNE,14,2.0,5.0,77,0.00,,,0.00,0.000000,,2013-01-21 07:32:00,
2013-01-20 21:53:00,65.0,53.0,-100.00,North,2,4.0,6.0,66,0.00,,,0.00,0.000000,,2013-01-21 07:53:00,
2013-01-20 22:02:00,65.0,53.0,-100.00,North,2,4.0,6.0,66,0.00,,,0.00,0.000000,,2013-01-21 08:02:00,
2013-01-20 22:13:00,65.0,53.0,-100.00,North,2,4.0,6.0,66,0.00,,,0.00,0.000000,,2013-01-21 08:13:00,
2013-01-20 22:22:00,65.0,53.0,-100.00,North,2,4.0,6.0,66,0.00,,,0.00,0.000000,,2013-01-21 08:22:00,
2013-01-20 22:32:00,65.0,53.0,-100.00,North,2,4.0,6.0,66,0.00,,,0.00,0.000000,,2013-01-21 08:32:00,
2013-01-20 22:53:00,65.0,56.0,-100.00,North,7,2.0,4.0,74,0.00,,,0.00,0.000000,,2013-01-21 08:53:00,
2013-01-20 23:02:00,65.0,56.0,-100.00,North,7,2.0,4.0,74,0.00,,,0.00,0.000000,,2013-01-21 09:02:00,
2013-01-20 23:12:00,65.0,56.0,-100.00,North,7,2.0,4.0,74,0.00,,,0.00,0.000000,,2013-01-21 09:12:00,
2013-01-20 23:22:00,65.0,56.0,-100.00,North,7,2.0,4.0,74,0.00,,,0.00,0.000000,,2013-01-21 09:22:00,
2013-01-20 23:32:00,65.0,56.0,-100.00,North,7,2.0,4.0,74,0.00,,,0.00,0.000000,,2013-01-21 09:32:00,
2013-01-20 23:53:00,64.0,56.0,-100.00,North,5,3.0,4.0,74,0.00,,,0.00,0.000000,,2013-01-21 09:53:00,